Regional Weather Roundup
Issued by NWS

Home | Current Version | Previous Version | Graphics & Text | Print | Product List | Glossary On
Versions: 1 2 3 4 5 6 7 8 9 10 11 12 13 14 15 16 17 18 19 20 21 22 23 24 25 26 27 28 29 30 31 32 33 34 35 36 37 38 39 40 41 42 43 44 45 46 47 48 49 50
000
ASUS43 KIND 301159
RWRIN

WEATHER ROUNDUP FOR INDIANA
NATIONAL WEATHER SERVICE INDIANAPOLIS IN
800 AM EDT TUE JUN 30 2015

NOTE: "FAIR" INDICATES FEW OR NO CLOUDS BELOW 12,000 FEET WITH NO
SIGNIFICANT WEATHER AND/OR OBSTRUCTIONS TO VISIBILITY.

* - STATION DOES NOT REPORT WEATHER SUCH AS PRECIPITATION OR FOG.

+ - STATION NOT QUALITY CONTROLLED BY THE NATIONAL WEATHER SERVICE.
    USE DATA WITH CAUTION...ESPECIALLY DEWPOINT AND RELATIVE
    HUMIDITY OBSERVATIONS.

INZ001>003-010>013-019-020-301300-
NORTHWEST INDIANA

CITY           SKY/WX    TMP DP  RH WIND       PRES   REMARKS
GARY /AIRPORT/ MOSUNNY  N/A N/A N/A W7        29.80R
RENSSELAER +   PTSUNNY   63  63 100 SW7       29.83R

$$

LMZ046-743>745-301300-
SOUTHERN LAKE MICHIGAN

STATION/POSITION TIME  TEMP    WIND        PRES    WAVE
                       AIR SEA DIR/SP/G            HT
                 (UTC) (F)     (DEG/KT/KT) (MB)    (FT)
BURNS HARBOR     1100   65     250/  7/  9 1009.5R
MICHIGAN CITY    1100   64     180/  6/  7   N/A
5NW MICH CITY    1100   64 65  230/  6/  8   N/A     0

$$

INZ004-005-014>016-021>024-301300-
NORTH CENTRAL INDIANA

CITY           SKY/WX    TMP DP  RH WIND       PRES   REMARKS
ELKHART        CLOUDY    63  63 100 SW3       29.81R FOG
GOSHEN         CLOUDY    64  62  93 S5        29.81R FOG
6HR MIN TEMP:  61; 6HR MAX TEMP:  64;

PERU/GRISSOM   RAIN      63  63 100 W14       29.82R FOG
SOUTH BEND     RAIN      64  62  93 S6        29.81R FOG
6HR MIN TEMP:  62; 6HR MAX TEMP:  64; 6HR PCP:  0.01;


$$

INZ006>009-017-018-025>027-301300-
NORTHEAST INDIANA

CITY           SKY/WX    TMP DP  RH WIND       PRES   REMARKS
ANGOLA *+      CLOUDY    61  52  72 S3        29.82R
FORT WAYNE     CLOUDY    63  62  97 S5        29.84R FOG
6HR MIN TEMP:  57; 6HR MAX TEMP:  63;


$$

INZ028-029-035-036-043>045-051>053-301300-
WEST CENTRAL INDIANA

CITY           SKY/WX    TMP DP  RH WIND       PRES   REMARKS
CRAWFORDSVL +  CLOUDY    62  60  93 SW7       29.85R
6HR MIN TEMP:  60; 6HR MAX TEMP:  63; 6HR PCP:  0.03;

GREENCASTLE +  MOSUNNY   63  59  88 CALM      29.86R FOG
LAFAYETTE      PTSUNNY   63  63 100 CALM      29.83R FOG
6HR MIN TEMP:  60; 6HR MAX TEMP:  63; 6HR PCP:  0.25;

TERRE HAUTE    SUNNY     67  65  93 SW6       29.85R
6HR MIN TEMP:  64; 6HR MAX TEMP:  67;


$$

INZ030>032-037>040-046>048-054>057-064-065-301300-
CENTRAL INDIANA

CITY           SKY/WX    TMP DP  RH WIND       PRES   REMARKS
GREENWOOD *+   MOSUNNY   66  63  88 S5        29.85R
INDIANAPOLIS   PTSUNNY   66  63  90 SW7       29.84R
6HR MIN TEMP:  64; 6HR MAX TEMP:  66; 6HR PCP: TRACE;

-EAGLE CREEK   MOSUNNY   66  64  93 SW5       29.83R
6HR MIN TEMP:  64; 6HR MAX TEMP:  67; 6HR PCP:  0.01;

KOKOMO *+      CLOUDY    63  59  88 W13       29.83S
6HR MIN TEMP:  61; 6HR MAX TEMP:  64; 6HR PCP:  0.07;

MT COMFORT *+  MOSUNNY   66 N/A N/A SW5       29.85R
SHELBYVILLE    MOSUNNY   67  64  90 SW8       29.85R
6HR MIN TEMP:  66; 6HR MAX TEMP:  68; 6HR PCP:  0.01;


$$

INZ033-034-041-042-049-050-058-059-301300-
EAST CENTRAL INDIANA

CITY           SKY/WX    TMP DP  RH WIND       PRES   REMARKS
MUNCIE         PTSUNNY   66  63  90 SW7       29.84R
6HR MIN TEMP:  63; 6HR MAX TEMP:  66;


$$

INZ060-061-067>069-081>083-085>088-301300-
SOUTHWEST INDIANA

CITY           SKY/WX    TMP DP  RH WIND       PRES   REMARKS
EVANSVILLE     MOSUNNY   70  64  81 S5        29.88R
6HR MIN TEMP:  68; 6HR MAX TEMP:  71; 6HR PCP: TRACE;

HUNTINGBURG *+ MOSUNNY   66  63  88 S6        29.88S
6HR MIN TEMP:  64; 6HR MAX TEMP:  66;


$$

INZ062-063-066-070>080-084-089>092-301300-
SOUTH CENTRAL AND SOUTHEAST INDIANA

CITY           SKY/WX    TMP DP  RH WIND       PRES   REMARKS
BLOOMINGTON    SUNNY     67  64  90 W6        29.86R
6HR MIN TEMP:  64; 6HR MAX TEMP:  67;

MADISON *+     MOSUNNY   64  63  94 S3        29.90S
SEYMOUR +      MOSUNNY   68  64  88 SW5       29.86R

$$




USA.gov is the U.S. government's official web portal to all federal, state and local government web resources and services.